Regional Weather Roundup
Issued by NWS Lake Charles, LA

Home | Current Version | Previous Version | Text Only | Print | Product List | Glossary On
Versions: 1 2 3 4 5 6 7 8 9 10 11 12 13 14 15 16 17 18 19 20 21 22 23 24 25 26 27 28 29 30 31 32 33 34 35 36 37 38 39 40 41 42 43 44 45 46 47
000
ASUS44 KLCH 030310
RWRLCH
RWRLCH
REGIONAL WEATHER ROUNDUP
NATIONAL WEATHER SERVICE LAKE CHARLES LA
1000 PM CDT SUN AUG 02 2015

Note: "fair" indicates few or no clouds below 12,000 feet with no
significant weather and/or obstructions to visibility.


ACROSS SOUTHEAST TEXAS

CITY           SKY/WX    TMP DP  RH WIND       PRES   REMARKS
BEAUMONT       CLEAR     79  71  76 SW5       29.86R
BEAUMONT CITY    N/A     79  68  69 CALM      29.87R
ORANGE         CLEAR     82  67  60 CALM      29.88R
JASPER         CLEAR     80  67  65 CALM      29.90R
$$

ACROSS CENTRAL LOUISIANA

CITY           SKY/WX    TMP DP  RH WIND       PRES   REMARKS
LEESVILLE      CLEAR     78  66  65 SE2       29.86R
FULLERTON        N/A     75  64  68 CALM      29.85R
ALEXANDRIA INT CLEAR     78  67  68 CALM      29.85R
ESLER FIELD    CLEAR     77  68  73 CALM      29.87R
DERIDDER         N/A     80  67  64 CALM      29.88S
OAKDALE          N/A     73  69  89 CALM      29.87R
OPELOUSAS        N/A     76  71  85 CALM      29.87R
$$

ACROSS SOUTHWEST AND SOUTH CENTRAL LOUISIANA

CITY           SKY/WX    TMP DP  RH WIND       PRES   REMARKS
SULPHUR        CLEAR     82  71  70 CALM      29.87S
LAKE CHARLES   CLEAR     81  71  71 S3        29.86R
CHENNAULT INT  CLEAR     79  72  78 S3        29.87
CAMERON PHI      N/A     86  73  66 S12       29.89S
DEQUINCY         N/A     79  68  68 CALM      29.87R
JENNINGS         N/A     81  73  76 CALM      29.87S
LAFAYETTE      CLEAR     82  69  64 SW6       29.87R
NEW IBERIA     CLEAR     80  73  79 CALM      29.87S
ABBEVILLE        N/A     81  73  78 CALM      29.87S
PATTERSON      CLEAR     79  72  78 S5        29.89R
SALT POINT       N/A     86  74  67 MISG      29.86R
$$

SELECTED SITES ACROSS THE REGION

CITY           SKY/WX    TMP DP  RH WIND       PRES   REMARKS
HOUSTON BUSH   CLEAR     85  66  53 S5        29.86R
HOUSTON HOBBY  PTCLDY    83  69  62 S5        29.86R
GALVESTON      CLEAR     86  70  58 S9        29.88R
COLLEGE STAT   CLEAR     85  61  44 S5        29.86R
CONROE         CLEAR     79  65  62 CALM      29.88R
HUNTSVILLE     CLEAR     88  61  40 CALM      29.87R
LUFKIN         CLEAR     78  65  63 E3        29.87R
SHREVEPORT     PTCLDY    83  62  49 CALM      29.87R
MONROE         CLEAR     77  69  76 E3        29.88R
NATCHEZ MS     CLEAR     79  70  73 CALM      29.88S
BATON ROUGE    CLEAR     80  71  74 CALM      29.87R
N.O. INTL ARPT PTCLDY    84  73  69 S9        29.88R
SLIDELL        CLEAR     78  73  84 CALM      29.87R
$$

MARINE REPORTS

STATION/POSITION TIME  TEMP    WIND        PRES    VSBY  WAVE
                       AIR SEA DIR/SP/G                  HT/PER
                 (UTC) (F)     (DEG/KT/KT) (MB)    (MI)  (FT/S)
BUOY 30 S HIGH I 0250   87 87  150/ 10/ 12 1010.8R         1
SEA RIM ST PARK  0300   86     180/  8/ 10 1011.9R
PORT ARTHUR      0200      89   CALM  /  4 1011.0S
SABINE PASS N    0200   85 88  200/  3/  5 1011.1S
TEXAS POINT      NOT AVBL
CALCASIEU PASS   0200   87 87  190/ 10/ 11 1010.3R
LK CHARLES BEACH 0200   86 88                N/A
MARSH ISLAND     0200   88     190/  6/  8   N/A           0
FRESH WATER LOCK 0200   87 89  160/  4/  6 1011.3R
AMERADA PASS     0200   85 89   CALM  /  3 1011.5R
$$


USA.gov is the U.S. government's official web portal to all federal, state and local government web resources and services.